WXM80 ListenWXM80 Stop

You find our weather info also at:

UK Metoffice

WeatherCloud

Weather Underground

Northeastern Weather Network

AWEKAS

Citizen Weather Observer Program (CWOP)

HAMweather, WeatherForYou, PWS Weather


Weather Underground History page Text

Daily Summary for December 9, 2016 Units:  English    Metric   Both
« Previous Day
Next Day »
Daily Weekly Monthly Yearly Custom
  High: Low: Average:
Temperature: 40.3 °F 30.0 °F 35.1 °F
Dew Point: 25.5 °F 16.4 °F 21.5 °F
Humidity: 66 % 48 % 58 %
Wind Speed: 14.1 mph 1.4 mph 7 mph
Wind Gust: 26.5 mph - -
Wind:- - WNW
Pressure: 30.25 in 29.93 in -
Precipitation: 0.00 in    
Historical Graphs
 
 
Tabular Data for December 9, 2016
Time Temperature Dew Point Pressure Wind Wind Speed Wind Gust Humidity Rainfall Rate (Hourly)
00:00 36.5 °F 22.7 °F 29.93 in WSW 6.4 mph 11.5 mph 57 % 0.00 in
00:05 36.5 °F 22.7 °F 29.94 in NW 8.7 mph 16.1 mph 57 % 0.00 in
00:10 36.5 °F 22.3 °F 29.93 in WNW 8.5 mph 13.8 mph 56 % 0.00 in
00:15 36.4 °F 22.2 °F 29.93 in West 9.7 mph 15.0 mph 56 % 0.00 in
00:20 36.4 °F 22.2 °F 29.93 in SW 6.4 mph 9.2 mph 56 % 0.00 in
00:25 36.3 °F 22.5 °F 29.93 in SW 5.5 mph 10.4 mph 57 % 0.00 in
00:30 36.2 °F 22.4 °F 29.93 in WNW 4.5 mph 8.1 mph 57 % 0.00 in
00:35 36.2 °F 22.0 °F 29.94 in WNW 3.3 mph 15.0 mph 56 % 0.00 in
00:40 36.1 °F 22.3 °F 29.94 in West 6.7 mph 11.5 mph 57 % 0.00 in
00:45 36.1 °F 22.7 °F 29.93 in WSW 5.5 mph 10.4 mph 58 % 0.00 in
00:51 36.0 °F 22.2 °F 29.94 in WSW 5.0 mph 9.2 mph 57 % 0.00 in
00:56 35.9 °F 21.7 °F 29.94 in WNW 7.5 mph 13.0 mph 56 % 0.00 in
01:01 35.9 °F 22.1 °F 29.94 in WNW 5.3 mph 15.0 mph 57 % 0.00 in
01:06 36.0 °F 22.2 °F 29.94 in WSW 6.0 mph 13.8 mph 57 % 0.00 in
01:11 36.0 °F 22.2 °F 29.94 in SW 5.7 mph 11.5 mph 57 % 0.00 in
01:16 36.1 °F 22.3 °F 29.94 in WSW 6.9 mph 16.0 mph 57 % 0.00 in
01:21 36.2 °F 21.1 °F 29.94 in West 7.8 mph 16.1 mph 54 % 0.00 in
01:26 36.1 °F 21.9 °F 29.94 in West 6.6 mph 11.5 mph 56 % 0.00 in
01:31 36.1 °F 21.5 °F 29.95 in WSW 5.9 mph 9.2 mph 55 % 0.00 in
01:37 36.1 °F 21.9 °F 29.95 in WNW 6.6 mph 12.0 mph 56 % 0.00 in
01:42 36.0 °F 21.4 °F 29.95 in WSW 6.7 mph 11.5 mph 55 % 0.00 in
01:47 35.9 °F 21.7 °F 29.95 in WSW 4.8 mph 10.0 mph 56 % 0.00 in
01:52 35.8 °F 22.0 °F 29.95 in WNW 5.3 mph 10.4 mph 57 % 0.00 in
01:57 35.7 °F 21.5 °F 29.95 in WNW 5.4 mph 9.2 mph 56 % 0.00 in
02:02 35.6 °F 21.9 °F 29.95 in WNW 5.4 mph 18.4 mph 57 % 0.00 in
02:07 35.6 °F 21.9 °F 29.96 in SW 5.0 mph 8.1 mph 57 % 0.00 in
02:12 35.5 °F 21.8 °F 29.96 in WSW 4.9 mph 10.4 mph 57 % 0.00 in
02:17 35.4 °F 21.7 °F 29.96 in WNW 1.4 mph 10.4 mph 57 % 0.00 in
02:22 35.4 °F 22.1 °F 29.96 in SW 7.0 mph 13.0 mph 58 % 0.00 in
02:27 35.3 °F 22.0 °F 29.96 in NW 4.8 mph 10.4 mph 58 % 0.00 in
02:32 35.3 °F 21.6 °F 29.96 in WNW 4.6 mph 9.2 mph 57 % 0.00 in
02:38 35.2 °F 21.5 °F 29.97 in West 10.7 mph 17.3 mph 57 % 0.00 in
02:43 35.2 °F 21.5 °F 29.97 in SW 6.6 mph 17.3 mph 57 % 0.00 in
02:48 35.1 °F 21.4 °F 29.97 in SW 5.8 mph 16.1 mph 57 % 0.00 in
02:53 35.1 °F 21.0 °F 29.97 in WSW 7.0 mph 15.0 mph 56 % 0.00 in
02:58 35.1 °F 21.8 °F 29.97 in WNW 6.0 mph 10.4 mph 58 % 0.00 in
03:03 35.0 °F 22.1 °F 29.97 in WSW 4.3 mph 13.0 mph 59 % 0.00 in
03:08 35.0 °F 22.1 °F 29.97 in WNW 6.2 mph 9.2 mph 59 % 0.00 in
03:13 34.8 °F 21.9 °F 29.97 in WNW 6.4 mph 11.5 mph 59 % 0.00 in
03:18 34.8 °F 21.9 °F 29.97 in WNW 6.8 mph 10.4 mph 59 % 0.00 in
03:23 34.7 °F 22.2 °F 29.97 in SW 4.8 mph 12.0 mph 60 % 0.00 in
03:29 34.6 °F 21.7 °F 29.98 in NW 3.9 mph 11.5 mph 59 % 0.00 in
03:34 34.6 °F 21.7 °F 29.98 in WNW 1.9 mph 4.6 mph 59 % 0.00 in
03:39 34.5 °F 22.0 °F 29.98 in NW 5.8 mph 11.5 mph 60 % 0.00 in
03:44 34.5 °F 22.4 °F 29.98 in West 4.4 mph 5.8 mph 61 % 0.00 in
03:49 34.4 °F 22.7 °F 29.98 in SSW 7.2 mph 13.0 mph 62 % 0.00 in
03:54 34.4 °F 22.3 °F 29.97 in West 2.9 mph 8.1 mph 61 % 0.00 in
03:59 34.4 °F 22.3 °F 29.98 in West 7.0 mph 18.4 mph 61 % 0.00 in
04:04 34.4 °F 22.3 °F 29.98 in WNW 6.5 mph 15.0 mph 61 % 0.00 in
04:09 34.4 °F 23.1 °F 29.99 in SW 3.1 mph 8.1 mph 63 % 0.00 in
04:14 34.3 °F 22.2 °F 29.98 in West 7.2 mph 13.8 mph 61 % 0.00 in
04:20 34.3 °F 22.2 °F 29.98 in West 6.0 mph 10.0 mph 61 % 0.00 in
04:25 34.3 °F 22.6 °F 29.99 in WSW 8.6 mph 9.0 mph 62 % 0.00 in
04:30 34.3 °F 22.6 °F 29.99 in West 7.0 mph 16.0 mph 62 % 0.00 in
04:35 34.3 °F 22.6 °F 29.99 in West 6.0 mph 14.0 mph 62 % 0.00 in
04:45 34.2 °F 22.9 °F 29.99 in West 6.0 mph 21.0 mph 63 % 0.00 in
04:50 34.2 °F 22.5 °F 29.99 in West 7.0 mph 18.0 mph 62 % 0.00 in
04:55 34.2 °F 22.9 °F 29.98 in West 8.0 mph 14.0 mph 63 % 0.00 in
05:00 34.2 °F 22.9 °F 29.98 in WNW 5.2 mph 12.7 mph 63 % 0.00 in
05:05 34.2 °F 22.5 °F 29.99 in SW 8.9 mph 16.1 mph 62 % 0.00 in
05:10 34.2 °F 22.5 °F 29.98 in WNW 7.8 mph 15.0 mph 62 % 0.00 in
05:15 34.2 °F 22.9 °F 29.98 in SW 7.7 mph 21.9 mph 63 % 0.00 in
05:20 34.1 °F 22.4 °F 29.99 in West 8.5 mph 11.5 mph 62 % 0.00 in
05:25 34.1 °F 22.4 °F 29.99 in West 6.9 mph 12.7 mph 62 % 0.00 in
05:30 34.1 °F 22.8 °F 29.99 in West 6.6 mph 13.0 mph 63 % 0.00 in
05:35 34.1 °F 22.8 °F 29.99 in West 4.2 mph 11.5 mph 63 % 0.00 in
05:40 34.1 °F 23.2 °F 29.99 in SSW 3.0 mph 8.1 mph 64 % 0.00 in
05:46 34.0 °F 23.1 °F 29.99 in West 7.6 mph 12.7 mph 64 % 0.00 in
05:51 34.0 °F 23.1 °F 29.99 in SSW 5.2 mph 8.0 mph 64 % 0.00 in
05:56 34.0 °F 23.1 °F 29.99 in WSW 5.3 mph 11.5 mph 64 % 0.00 in
06:01 34.0 °F 22.7 °F 29.99 in WSW 6.5 mph 11.5 mph 63 % 0.00 in
06:06 34.0 °F 23.1 °F 29.99 in NW 7.0 mph 7.0 mph 64 % 0.00 in
06:11 34.1 °F 23.6 °F 29.99 in WSW 5.2 mph 10.0 mph 65 % 0.00 in
06:16 34.0 °F 23.5 °F 30.00 in West 6.7 mph 16.1 mph 65 % 0.00 in
06:21 34.1 °F 23.2 °F 30.00 in WSW 5.8 mph 9.0 mph 64 % 0.00 in
06:26 34.1 °F 23.6 °F 30.00 in SW 5.2 mph 10.4 mph 65 % 0.00 in
06:31 34.0 °F 23.5 °F 30.00 in NW 5.9 mph 6.9 mph 65 % 0.00 in
06:37 34.0 °F 23.5 °F 30.00 in SW 4.3 mph 9.2 mph 65 % 0.00 in
06:42 33.9 °F 23.4 °F 30.00 in WSW 7.5 mph 10.4 mph 65 % 0.00 in
06:47 33.9 °F 23.4 °F 30.00 in West 8.8 mph 12.7 mph 65 % 0.00 in
06:52 33.9 °F 23.4 °F 30.01 in West 8.0 mph 11.5 mph 65 % 0.00 in
06:58 33.9 °F 23.4 °F 30.01 in West 4.4 mph 10.4 mph 65 % 0.00 in
07:03 34.0 °F 23.5 °F 30.01 in WSW 6.1 mph 16.1 mph 65 % 0.00 in
07:08 34.0 °F 23.8 °F 30.02 in WSW 8.7 mph 12.7 mph 66 % 0.00 in
07:13 34.0 °F 23.5 °F 30.02 in WSW 6.8 mph 11.5 mph 65 % 0.00 in
07:18 34.0 °F 23.8 °F 30.02 in West 4.7 mph 8.1 mph 66 % 0.00 in
07:23 34.0 °F 23.8 °F 30.02 in WNW 3.3 mph 5.8 mph 66 % 0.00 in
07:28 34.0 °F 23.8 °F 30.02 in WSW 4.4 mph 8.0 mph 66 % 0.00 in
07:33 34.0 °F 23.8 °F 30.02 in West 5.7 mph 12.7 mph 66 % 0.00 in
07:38 34.1 °F 23.9 °F 30.03 in WNW 5.3 mph 11.5 mph 66 % 0.00 in
07:43 34.1 °F 23.9 °F 30.03 in West 4.9 mph 11.5 mph 66 % 0.00 in
07:49 34.2 °F 24.0 °F 30.03 in SW 9.1 mph 16.0 mph 66 % 0.00 in
07:54 34.2 °F 24.0 °F 30.03 in West 8.8 mph 11.5 mph 66 % 0.00 in
07:59 34.3 °F 23.7 °F 30.03 in NW 6.1 mph 10.4 mph 65 % 0.00 in
08:04 34.4 °F 24.2 °F 30.03 in NW 5.4 mph 13.8 mph 66 % 0.00 in
08:09 34.5 °F 24.3 °F 30.03 in West 8.5 mph 14.0 mph 66 % 0.00 in
08:14 34.5 °F 23.9 °F 30.03 in WSW 7.3 mph 11.5 mph 65 % 0.00 in
08:19 34.6 °F 24.0 °F 30.04 in West 5.1 mph 9.2 mph 65 % 0.00 in
08:24 34.7 °F 24.5 °F 30.04 in WNW 5.1 mph 8.1 mph 66 % 0.00 in
08:29 34.8 °F 24.6 °F 30.03 in West 5.5 mph 12.7 mph 66 % 0.00 in
08:34 35.0 °F 24.8 °F 30.04 in NW 5.7 mph 15.0 mph 66 % 0.00 in
08:40 35.1 °F 24.5 °F 30.04 in WNW 7.0 mph 17.0 mph 65 % 0.00 in
08:45 35.2 °F 24.6 °F 30.05 in SW 3.6 mph 12.7 mph 65 % 0.00 in
08:50 35.3 °F 24.7 °F 30.05 in WNW 5.0 mph 16.0 mph 65 % 0.00 in
08:55 35.5 °F 25.3 °F 30.05 in WNW 8.0 mph 17.0 mph 66 % 0.00 in
09:00 35.6 °F 24.6 °F 30.05 in West 9.2 mph 19.6 mph 64 % 0.00 in
09:05 35.7 °F 25.1 °F 30.06 in WSW 9.2 mph 17.3 mph 65 % 0.00 in
09:10 35.8 °F 24.4 °F 30.05 in WSW 7.4 mph 13.8 mph 63 % 0.00 in
09:15 35.8 °F 25.2 °F 30.05 in NNW 9.1 mph 16.1 mph 65 % 0.00 in
09:20 35.9 °F 24.9 °F 30.05 in WNW 8.6 mph 13.0 mph 64 % 0.00 in
09:25 36.1 °F 25.5 °F 30.06 in WNW 6.5 mph 12.7 mph 65 % 0.00 in
09:30 36.3 °F 25.3 °F 30.06 in WSW 6.0 mph 11.5 mph 64 % 0.00 in
09:35 36.4 °F 24.6 °F 30.06 in WNW 5.4 mph 18.4 mph 62 % 0.00 in
09:40 36.5 °F 24.3 °F 30.06 in NNW 7.2 mph 11.5 mph 61 % 0.00 in
09:45 36.5 °F 23.5 °F 30.06 in WNW 7.0 mph 11.5 mph 59 % 0.00 in
09:51 36.5 °F 23.5 °F 30.07 in WSW 9.0 mph 16.1 mph 59 % 0.00 in
09:56 36.5 °F 23.5 °F 30.06 in WNW 9.9 mph 16.1 mph 59 % 0.00 in
10:01 36.7 °F 24.1 °F 30.06 in WNW 7.7 mph 18.4 mph 60 % 0.00 in
10:06 37.0 °F 24.0 °F 30.07 in West 7.4 mph 18.4 mph 59 % 0.00 in
10:11 37.1 °F 24.1 °F 30.07 in NW 9.2 mph 11.5 mph 59 % 0.00 in
10:16 37.2 °F 24.6 °F 30.07 in WNW 6.6 mph 11.5 mph 60 % 0.00 in
10:21 37.2 °F 24.2 °F 30.07 in West 8.3 mph 13.8 mph 59 % 0.00 in
10:26 37.3 °F 24.7 °F 30.07 in West 5.7 mph 11.5 mph 60 % 0.00 in
10:31 37.5 °F 24.9 °F 30.07 in West 7.3 mph 16.1 mph 60 % 0.00 in
10:36 37.7 °F 25.1 °F 30.06 in West 5.1 mph 9.2 mph 60 % 0.00 in
10:42 37.9 °F 24.8 °F 30.07 in WNW 9.4 mph 17.3 mph 59 % 0.00 in
10:47 37.9 °F 24.8 °F 30.06 in WNW 8.9 mph 13.8 mph 59 % 0.00 in
10:52 37.8 °F 24.7 °F 30.06 in NNW 5.4 mph 12.7 mph 59 % 0.00 in
10:57 37.8 °F 23.9 °F 30.06 in WNW 10.3 mph 15.0 mph 57 % 0.00 in
11:02 37.6 °F 23.7 °F 30.06 in WNW 6.3 mph 10.4 mph 57 % 0.00 in
11:07 37.6 °F 24.1 °F 30.06 in NNW 6.3 mph 15.0 mph 58 % 0.00 in
11:13 37.5 °F 23.6 °F 30.06 in West 6.4 mph 12.7 mph 57 % 0.00 in
11:18 37.7 °F 25.1 °F 30.06 in NW 5.5 mph 11.5 mph 60 % 0.00 in
11:23 37.8 °F 24.7 °F 30.05 in WNW 2.3 mph 6.9 mph 59 % 0.00 in
11:28 37.8 °F 24.3 °F 30.06 in WSW 4.4 mph 9.2 mph 58 % 0.00 in
11:33 37.8 °F 24.3 °F 30.06 in NNW 7.0 mph 12.7 mph 58 % 0.00 in
11:38 38.0 °F 24.5 °F 30.05 in WNW 5.2 mph 11.0 mph 58 % 0.00 in
11:43 38.2 °F 24.7 °F 30.05 in West 2.6 mph 9.2 mph 58 % 0.00 in
11:48 38.4 °F 24.9 °F 30.04 in WSW 7.1 mph 11.5 mph 58 % 0.00 in
11:53 38.4 °F 24.5 °F 30.05 in NNW 7.2 mph 13.8 mph 57 % 0.00 in
11:58 38.6 °F 24.2 °F 30.04 in WNW 4.5 mph 10.4 mph 56 % 0.00 in
12:04 38.7 °F 23.9 °F 30.05 in NW 3.8 mph 5.8 mph 55 % 0.00 in
12:09 38.7 °F 23.9 °F 30.05 in West 9.5 mph 13.8 mph 55 % 0.00 in
12:14 38.7 °F 23.5 °F 30.05 in WNW 9.5 mph 16.1 mph 54 % 0.00 in
12:19 38.7 °F 23.5 °F 30.04 in North 8.4 mph 15.0 mph 54 % 0.00 in
12:24 38.8 °F 24.0 °F 30.05 in WNW 6.3 mph 13.0 mph 55 % 0.00 in
12:29 39.0 °F 23.7 °F 30.04 in WNW 7.8 mph 13.8 mph 54 % 0.00 in
12:34 39.1 °F 24.3 °F 30.04 in West 7.5 mph 13.0 mph 55 % 0.00 in
12:39 39.3 °F 23.6 °F 30.04 in WNW 11.3 mph 17.3 mph 53 % 0.00 in
12:44 39.3 °F 23.1 °F 30.04 in NW 7.1 mph 17.3 mph 52 % 0.00 in
12:49 39.3 °F 23.1 °F 30.04 in NW 9.0 mph 12.7 mph 52 % 0.00 in
12:55 39.4 °F 23.2 °F 30.04 in NW 7.0 mph 14.0 mph 52 % 0.00 in
13:00 39.6 °F 22.9 °F 30.04 in East 9.0 mph 12.7 mph 51 % 0.00 in
13:05 39.9 °F 24.1 °F 30.04 in NW 6.0 mph 18.0 mph 53 % 0.00 in
13:10 40.0 °F 23.3 °F 30.04 in NW 6.0 mph 13.0 mph 51 % 0.00 in
13:15 40.3 °F 23.6 °F 30.04 in NW 7.0 mph 16.0 mph 51 % 0.00 in
13:20 40.2 °F 23.0 °F 30.04 in WNW 8.0 mph 18.0 mph 50 % 0.00 in
13:25 39.9 °F 22.3 °F 30.04 in WNW 8.0 mph 15.0 mph 49 % 0.00 in
13:30 39.7 °F 22.6 °F 30.04 in WNW 5.0 mph 20.0 mph 50 % 0.00 in
13:35 39.6 °F 22.0 °F 30.04 in WNW 6.0 mph 20.0 mph 49 % 0.00 in
13:40 39.7 °F 23.1 °F 30.04 in WNW 6.0 mph 15.0 mph 51 % 0.00 in
13:45 39.6 °F 22.5 °F 30.05 in NW 8.0 mph 17.0 mph 50 % 0.00 in
13:50 39.3 °F 22.2 °F 30.05 in WNW 8.0 mph 20.0 mph 50 % 0.00 in
13:55 38.9 °F 21.3 °F 30.05 in WNW 7.0 mph 20.0 mph 49 % 0.00 in
14:00 38.7 °F 22.1 °F 30.04 in NW 9.9 mph 19.6 mph 51 % 0.00 in
14:05 38.6 °F 21.5 °F 30.04 in WNW 9.0 mph 13.8 mph 50 % 0.00 in
14:10 38.5 °F 21.9 °F 30.05 in NNW 6.9 mph 17.3 mph 51 % 0.00 in
14:15 38.6 °F 22.5 °F 30.05 in WNW 8.4 mph 12.7 mph 52 % 0.00 in
14:20 38.7 °F 20.7 °F 30.05 in NW 7.0 mph 18.4 mph 48 % 0.00 in
14:25 38.7 °F 22.6 °F 30.05 in NW 14.1 mph 20.7 mph 52 % 0.00 in
14:30 38.8 °F 22.7 °F 30.06 in NW 8.9 mph 13.0 mph 52 % 0.00 in
14:35 38.9 °F 21.8 °F 30.06 in WNW 6.5 mph 17.3 mph 50 % 0.00 in
14:41 38.8 °F 21.7 °F 30.06 in WNW 6.9 mph 10.4 mph 50 % 0.00 in
14:46 38.7 °F 21.6 °F 30.06 in NW 10.2 mph 17.3 mph 50 % 0.00 in
14:51 38.7 °F 21.6 °F 30.06 in SW 9.1 mph 19.6 mph 50 % 0.00 in
14:56 38.6 °F 21.5 °F 30.06 in NW 8.8 mph 21.0 mph 50 % 0.00 in
15:01 38.5 °F 22.4 °F 30.06 in WNW 10.1 mph 24.2 mph 52 % 0.00 in
15:06 38.3 °F 20.8 °F 30.07 in NW 8.1 mph 13.8 mph 49 % 0.00 in
15:11 38.0 °F 21.0 °F 30.07 in NW 11.3 mph 21.9 mph 50 % 0.00 in
15:16 37.9 °F 21.4 °F 30.07 in NNW 5.3 mph 10.4 mph 51 % 0.00 in
15:21 37.8 °F 21.3 °F 30.08 in West 7.2 mph 18.4 mph 51 % 0.00 in
15:26 37.7 °F 20.7 °F 30.08 in WNW 7.2 mph 17.3 mph 50 % 0.00 in
15:32 37.8 °F 22.6 °F 30.08 in West 8.0 mph 18.0 mph 54 % 0.00 in
15:37 37.8 °F 21.3 °F 30.08 in NW 8.5 mph 18.4 mph 51 % 0.00 in
15:42 37.7 °F 19.8 °F 30.09 in NNW 11.0 mph 19.6 mph 48 % 0.00 in
15:47 37.6 °F 21.5 °F 30.09 in NNW 10.1 mph 15.0 mph 52 % 0.00 in
15:52 37.5 °F 20.5 °F 30.09 in NNW 6.6 mph 18.4 mph 50 % 0.00 in
15:57 37.3 °F 20.3 °F 30.10 in West 7.6 mph 19.6 mph 50 % 0.00 in
16:02 37.1 °F 19.7 °F 30.10 in NNW 9.5 mph 21.9 mph 49 % 0.00 in
16:07 37.0 °F 20.5 °F 30.10 in WNW 8.8 mph 12.7 mph 51 % 0.00 in
16:12 37.0 °F 20.5 °F 30.10 in West 10.5 mph 17.3 mph 51 % 0.00 in
16:17 36.7 °F 19.3 °F 30.11 in NW 9.8 mph 19.6 mph 49 % 0.00 in
16:23 36.6 °F 19.7 °F 30.11 in NNW 6.2 mph 21.9 mph 50 % 0.00 in
16:28 36.5 °F 20.1 °F 30.12 in NW 9.0 mph 19.6 mph 51 % 0.00 in
16:33 36.4 °F 20.0 °F 30.12 in NW 7.1 mph 17.0 mph 51 % 0.00 in
16:38 36.2 °F 19.8 °F 30.12 in West 12.2 mph 21.9 mph 51 % 0.00 in
16:43 36.1 °F 19.7 °F 30.12 in West 7.6 mph 15.0 mph 51 % 0.00 in
16:48 36.0 °F 19.1 °F 30.12 in North 6.3 mph 11.5 mph 50 % 0.00 in
16:53 35.9 °F 20.4 °F 30.12 in WSW 7.6 mph 14.0 mph 53 % 0.00 in
16:58 35.9 °F 19.0 °F 30.12 in North 9.0 mph 26.5 mph 50 % 0.00 in
17:03 35.7 °F 19.8 °F 30.13 in NW 6.4 mph 15.0 mph 52 % 0.00 in
17:08 35.6 °F 19.2 °F 30.14 in WNW 7.6 mph 12.7 mph 51 % 0.00 in
17:13 35.5 °F 18.7 °F 30.14 in West 11.7 mph 23.0 mph 50 % 0.00 in
17:18 35.5 °F 19.6 °F 30.14 in WNW 10.3 mph 20.0 mph 52 % 0.00 in
17:24 35.3 °F 19.4 °F 30.14 in WNW 8.2 mph 17.3 mph 52 % 0.00 in
17:29 35.3 °F 19.0 °F 30.15 in NW 9.1 mph 19.6 mph 51 % 0.00 in
17:34 35.2 °F 19.8 °F 30.15 in NW 11.1 mph 16.1 mph 53 % 0.00 in
17:39 35.0 °F 19.1 °F 30.15 in West 6.9 mph 11.5 mph 52 % 0.00 in
17:44 35.0 °F 20.0 °F 30.15 in West 12.7 mph 21.0 mph 54 % 0.00 in
17:49 34.8 °F 20.3 °F 30.16 in NW 7.8 mph 13.0 mph 55 % 0.00 in
17:54 34.7 °F 19.3 °F 30.16 in NNW 11.2 mph 19.6 mph 53 % 0.00 in
17:59 34.5 °F 19.5 °F 30.16 in NW 11.0 mph 18.4 mph 54 % 0.00 in
18:04 34.5 °F 20.0 °F 30.17 in WNW 9.1 mph 15.0 mph 55 % 0.00 in
18:09 34.4 °F 19.9 °F 30.17 in WNW 6.0 mph 11.5 mph 55 % 0.00 in
18:15 34.3 °F 19.3 °F 30.17 in NW 7.0 mph 24.0 mph 54 % 0.00 in
18:20 34.1 °F 19.2 °F 30.18 in WNW 7.0 mph 18.0 mph 54 % 0.00 in
18:25 34.0 °F 18.6 °F 30.18 in WNW 10.0 mph 21.0 mph 53 % 0.00 in
18:30 33.8 °F 18.5 °F 30.18 in NW 6.0 mph 17.0 mph 53 % 0.00 in
18:35 33.7 °F 18.8 °F 30.19 in NW 10.0 mph 18.0 mph 54 % 0.00 in
18:40 33.6 °F 18.7 °F 30.19 in NW 5.0 mph 20.0 mph 54 % 0.00 in
18:45 33.5 °F 18.2 °F 30.19 in WNW 9.0 mph 21.0 mph 53 % 0.00 in
18:50 33.3 °F 18.0 °F 30.20 in WNW 12.0 mph 20.0 mph 53 % 0.00 in
18:55 33.2 °F 18.3 °F 30.20 in WNW 9.0 mph 16.0 mph 54 % 0.00 in
19:00 33.1 °F 18.2 °F 30.20 in WNW 8.5 mph 10.4 mph 54 % 0.00 in
19:05 33.0 °F 18.1 °F 30.20 in WNW 8.3 mph 16.0 mph 54 % 0.00 in
19:10 32.9 °F 18.1 °F 30.21 in NNW 9.1 mph 19.6 mph 54 % 0.00 in
19:15 32.8 °F 18.4 °F 30.21 in WNW 8.6 mph 18.4 mph 55 % 0.00 in
19:20 32.7 °F 18.3 °F 30.21 in West 11.0 mph 17.3 mph 55 % 0.00 in
19:25 32.6 °F 19.0 °F 30.21 in NW 8.1 mph 15.0 mph 57 % 0.00 in
19:30 32.5 °F 18.1 °F 30.21 in WNW 8.4 mph 15.0 mph 55 % 0.00 in
19:35 32.4 °F 18.4 °F 30.21 in WNW 7.7 mph 14.0 mph 56 % 0.00 in
19:40 32.3 °F 18.8 °F 30.22 in NNE 4.5 mph 11.5 mph 57 % 0.00 in
19:45 32.3 °F 18.8 °F 30.21 in WNW 8.6 mph 18.0 mph 57 % 0.00 in
19:50 32.2 °F 18.2 °F 30.21 in NW 6.6 mph 17.3 mph 56 % 0.00 in
19:56 32.1 °F 18.2 °F 30.21 in WNW 8.4 mph 10.4 mph 56 % 0.00 in
20:01 32.0 °F 18.1 °F 30.22 in NW 11.1 mph 16.1 mph 56 % 0.00 in
20:06 32.0 °F 18.5 °F 30.22 in West 7.6 mph 15.0 mph 57 % 0.00 in
20:11 31.8 °F 17.9 °F 30.22 in NW 3.3 mph 9.2 mph 56 % 0.00 in
20:16 31.7 °F 18.2 °F 30.22 in NW 7.9 mph 12.7 mph 57 % 0.00 in
20:21 31.7 °F 18.2 °F 30.22 in NNW 4.5 mph 9.2 mph 57 % 0.00 in
20:26 31.6 °F 18.1 °F 30.22 in West 6.8 mph 15.0 mph 57 % 0.00 in
20:31 31.6 °F 18.1 °F 30.22 in North 6.5 mph 11.5 mph 57 % 0.00 in
20:36 31.5 °F 18.0 °F 30.22 in NW 7.6 mph 10.0 mph 57 % 0.00 in
20:41 31.4 °F 17.9 °F 30.22 in NW 4.4 mph 9.2 mph 57 % 0.00 in
20:47 31.4 °F 17.9 °F 30.22 in NW 8.1 mph 11.5 mph 57 % 0.00 in
20:52 31.2 °F 16.9 °F 30.23 in WNW 2.9 mph 9.2 mph 55 % 0.00 in
20:57 31.1 °F 17.6 °F 30.23 in WNW 7.1 mph 12.7 mph 57 % 0.00 in
21:02 31.0 °F 17.1 °F 30.23 in WNW 8.1 mph 16.1 mph 56 % 0.00 in
21:07 31.0 °F 17.5 °F 30.23 in WNW 8.2 mph 12.7 mph 57 % 0.00 in
21:12 30.9 °F 17.4 °F 30.23 in NW 5.2 mph 11.0 mph 57 % 0.00 in
21:17 30.9 °F 17.4 °F 30.23 in NW 4.8 mph 7.0 mph 57 % 0.00 in
21:22 30.8 °F 17.3 °F 30.23 in North 4.7 mph 12.0 mph 57 % 0.00 in
21:27 30.8 °F 16.9 °F 30.23 in WNW 7.3 mph 17.3 mph 56 % 0.00 in
21:32 30.7 °F 16.8 °F 30.23 in NW 5.3 mph 16.1 mph 56 % 0.00 in
21:38 30.7 °F 16.4 °F 30.23 in WNW 7.1 mph 11.5 mph 55 % 0.00 in
21:43 30.6 °F 17.2 °F 30.24 in WNW 7.3 mph 15.0 mph 57 % 0.00 in
21:48 30.6 °F 18.0 °F 30.24 in WNW 5.5 mph 11.5 mph 59 % 0.00 in
21:53 30.5 °F 17.5 °F 30.24 in NW 3.1 mph 9.2 mph 58 % 0.00 in
21:58 30.5 °F 18.3 °F 30.25 in WNW 6.2 mph 11.5 mph 60 % 0.00 in
22:03 30.5 °F 18.3 °F 30.24 in NNW 6.6 mph 16.1 mph 60 % 0.00 in
22:08 30.5 °F 17.9 °F 30.24 in West 5.3 mph 11.5 mph 59 % 0.00 in
22:13 30.4 °F 17.8 °F 30.24 in WNW 5.4 mph 9.2 mph 59 % 0.00 in
22:18 30.4 °F 17.8 °F 30.24 in WNW 7.7 mph 12.0 mph 59 % 0.00 in
22:23 30.3 °F 17.7 °F 30.25 in WNW 8.7 mph 13.8 mph 59 % 0.00 in
22:29 30.3 °F 17.3 °F 30.24 in West 6.1 mph 9.2 mph 58 % 0.00 in
22:34 30.2 °F 17.2 °F 30.24 in West 7.4 mph 11.5 mph 58 % 0.00 in
22:39 30.2 °F 17.6 °F 30.25 in NW 4.8 mph 10.4 mph 59 % 0.00 in
22:44 30.2 °F 17.6 °F 30.25 in NW 4.9 mph 13.0 mph 59 % 0.00 in
22:49 30.2 °F 17.6 °F 30.25 in West 5.6 mph 9.2 mph 59 % 0.00 in
22:54 30.1 °F 17.5 °F 30.25 in NW 6.7 mph 11.5 mph 59 % 0.00 in
22:59 30.1 °F 17.9 °F 30.25 in WNW 5.4 mph 11.5 mph 60 % 0.00 in
23:04 30.1 °F 17.9 °F 30.25 in NW 8.9 mph 15.0 mph 60 % 0.00 in
23:14 30.1 °F 17.9 °F 30.25 in NW 4.8 mph 11.5 mph 60 % 0.00 in
23:20 30.1 °F 17.9 °F 30.24 in WNW 7.0 mph 13.0 mph 60 % 0.00 in
23:21 30.1 °F 17.9 °F 30.24 in NW 5.4 mph 13.8 mph 60 % 0.00 in
23:26 30.1 °F 17.9 °F 30.24 in NW 4.7 mph 12.7 mph 60 % 0.00 in
23:31 30.1 °F 17.9 °F 30.24 in NW 7.4 mph 15.0 mph 60 % 0.00 in
23:37 30.1 °F 17.5 °F 30.24 in WNW 5.7 mph 13.8 mph 59 % 0.00 in
23:42 30.1 °F 18.3 °F 30.24 in WNW 7.7 mph 15.0 mph 61 % 0.00 in
23:47 30.1 °F 18.3 °F 30.24 in NW 6.6 mph 13.8 mph 61 % 0.00 in
23:52 30.1 °F 18.3 °F 30.23 in West 9.3 mph 15.0 mph 61 % 0.00 in
23:57 30.0 °F 18.2 °F 30.23 in NNW 8.4 mph 13.8 mph 61 % 0.00 in
Crab Meadow Weather
Compliments of Weather Underground - 3 mb

Script developed by  Jim McMurry - jmcmurry@mwt.net Adapted for the template by  Wim van der Kuil - Leuven-Template.eu

Recycling: Recycling 1 aluminum can saves enough energy to run your TV for 3 hours. Recycling aluminum cans saves 95% of the energy used to make cans from virgin ore.